Location: Middelsbur
(53.6609°N, 7.5020°E)
Time: 13:21:48
(UTC+00:00)

Cosmos 2369 Rocket - Pass Details

Date: 06 July 2020
Orbit: 830 x 851 km, 71.0° (Epoch: 06 August)

Event Time Altitude Azimuth Distance (km) Brightness Sun altitude
Rises 21:36:12 0° 326° (NW) 3,385 7.6 -9.6°
Reaches altitude 10° 21:39:02 10° 338° (NNW) 2,449 6.2 -9.8°
Maximum altitude 21:43:47 27° 36° (NE) 1,546 3.9 -10.1°
Drops below altitude 10° 21:48:30 10° 94° (E) 2,445 4.3 -10.4°
Sets 21:51:19 0° 106° (ESE) 3,378 4.9 -10.6°
Enters shadow 21:51:21 - 107° (ESE) 3,389 5.0 -10.6°
